Wind_Speed
19 16 16 15 14 16 16 17 20 15 9 6 7 9 9 8 9 10 10 12 13 13 14 16 15 14 16 16 16 17 16 14 11 12 11 10 9 10 11 13 13 12 11 10 10 9 9 9 9
17 16 20 21 20 19 21 22 23 21 15 9 5 6 9 9 9 9 9 9 12 12 13 14 14 14 16 17 17 17 17 13 11 11 11 10 8 8 9 11 12 11 9 8 8 8 8 7 7
17 15 17 19 21 21 22 24 23 20 16 14 5 4 5 7 8 7 9 8 11 10 11 12 12 13 15 17 17 18 17 15 14 12 13 13 11 10 9 10 9 8 8 6 5 4 5 6 6
15 16 16 21 24 24 21 23 23 19 16 13 11 6 3 4 9 7 7 8 9 9 9 10 12 12 13 15 15 16 17 17 16 15 13 12 11 11 11 10 9 8 8 8 7 5 4 4 4
18 16 16 18 25 26 24 23 21 20 20 19 15 10 6 4 6 7 6 7 7 6 7 9 10 11 11 12 14 14 14 14 13 13 11 11 11 10 10 9 8 8 8 8 8 6 4 4 3
16 16 18 19 26 23 25 23 19 19 20 22 19 16 9 2 4 5 6 6 7 5 5 7 8 10 10 10 10 10 10 10 9 9 9 8 7 7 8 8 7 7 8 8 7 5 4 4 3
14 16 19 20 22 22 21 22 18 17 19 20 19 14 11 6 3 4 4 6 6 5 5 5 7 9 10 8 7 7 8 8 7 7 6 5 5 5 6 6 7 7 7 7 5 5 4 4 5
14 13 17 17 21 21 22 23 17 16 18 20 19 16 13 10 2 3 4 5 5 5 6 7 6 6 8 7 6 5 6 7 6 6 4 4 3 3 4 3 2 5 4 5 3 4 5 5 4
10 10 13 14 17 19 24 24 17 16 17 17 18 15 14 10 5 3 1 4 5 6 7 8 7 5 5 5 4 4 5 7 8 7 4 4 2 3 2 1 1 3 3 4 4 4 6 7 5
9 7 10 12 16 20 23 26 25 19 17 17 20 14 12 12 8 4 1 3 4 7 8 9 8 8 6 5 4 2 2 3 4 6 6 5 5 5 5 2 2 3 4 4 4 5 5 6 6
7 8 11 13 16 19 22 25 25 23 24 15 17 17 12 10 11 7 3 6 8 8 9 9 9 8 7 6 6 4 2 2 3 4 6 6 6 3 7 4 2 1 2 3 5 4 5 6 7
6 7 8 13 17 18 21 24 27 29 24 23 18 15 13 14 13 10 7 5 9 10 10 8 8 7 6 7 6 6 4 2 1 1 3 5 5 7 2 3 3 2 3 6 8 7 6 6 6
5 5 6 12 14 17 18 21 25 27 26 22 21 17 17 16 14 11 10 4 7 10 8 6 5 6 5 5 6 4 4 2 1 2 1 1 3 3 2 2 4 4 4 4 7 8 7 7 7
3 4 3 7 11 14 17 17 20 22 24 22 19 19 19 20 17 14 12 6 2 7 9 5 5 6 7 6 6 4 3 3 3 3 2 1 2 1 2 4 4 5 11 16 11 11 9 10 9
5 4 5 4 7 10 12 16 17 18 19 21 20 20 18 20 21 20 18 8 5 6 6 8 8 8 8 7 6 4 3 3 4 4 3 1 3 4 6 7 8 11 14 13 9 9 9 10 13
9 5 4 6 10 8 7 13 13 15 15 18 20 18 17 18 20 20 15 13 11 2 2 11 11 8 8 7 6 5 5 5 4 4 4 5 6 7 8 9 10 13 14 13 12 12 13 15 13
11 7 4 10 10 9 8 9 10 11 11 13 15 19 14 14 17 18 14 14 10 5 4 9 9 10 8 7 5 5 7 5 6 5 7 8 10 11 12 13 14 13 17 15 15 15 11 8 12
12 9 2 12 9 5 4 4 5 9 9 10 12 14 15 10 12 15 15 14 12 9 5 6 8 8 8 9 6 5 3 3 7 7 8 7 9 8 10 10 11 15 18 17 13 15 13 13 14
13 11 12 8 12 10 8 4 6 7 8 10 13 13 13 5 7 11 13 12 13 11 9 8 8 9 9 9 5 2 5 9 9 5 4 6 6 7 10 11 11 14 15 17 15 12 11 12 14
15 12 14 15 10 7 9 6 8 6 4 6 9 13 13 6 4 6 9 11 11 12 11 9 9 10 10 8 8 9 7 5 8 6 5 6 8 8 9 9 9 10 9 8 9 10 10 13 11
18 16 18 17 19 9 13 8 6 6 3 3 6 13 13 6 5 4 7 8 8 8 8 10 10 10 11 9 8 6 5 6 7 5 5 5 6 7 7 7 9 9 9 7 4 6 8 9 9
18 21 21 20 21 18 11 11 12 13 11 3 8 16 12 10 8 4 5 5 3 4 4 6 6 6 6 5 4 3 1 2 4 4 3 4 5 5 6 7 6 7 7 6 5 5 7 7 7
22 26 22 24 22 18 18 13 11 14 17 14 10 11 14 11 6 4 5 6 5 7 5 4 2 3 3 2 0 2 4 5 6 6 6 7 6 6 6 6 6 5 5 5 5 5 5 7 8
27 24 25 25 25 24 19 20 9 12 11 12 10 12 15 12 12 10 12 13 11 9 9 7 6 4 3 2 4 4 4 5 7 8 8 10 11 7 6 5 5 5 5 4 4 4 5 7 8
25 25 30 27 26 25 23 24 14 16 15 16 14 10 13 12 11 13 13 15 14 11 9 10 9 8 6 6 6 6 4 4 5 8 10 11 13 13 11 8 7 4 5 5 6 7 9 9 10
26 27 32 30 28 22 20 25 21 17 18 15 12 7 12 11 11 13 12 11 11 11 9 10 11 11 10 9 8 7 7 5 5 7 9 11 13 15 16 12 10 8 7 8 10 12 13 13 13
25 27 30 33 30 27 24 21 16 11 11 10 10 11 14 11 10 12 11 14 10 13 13 11 13 12 10 11 10 8 8 6 6 7 8 10 11 13 13 16 13 13 11 11 13 13 13 12 12
26 29 31 35 33 30 28 24 10 12 7 9 9 12 16 11 9 13 13 17 17 18 14 13 14 13 12 12 11 9 8 7 9 9 11 11 12 12 9 15 16 15 15 14 14 15 14 14 16
26 31 33 33 35 27 26 24 11 16 13 11 6 6 16 13 13 18 19 23 25 14 14 14 14 15 15 12 12 9 8 9 10 11 13 14 15 16 13 13 17 18 19 19 19 18 17 18 19
29 32 33 34 33 33 30 23 13 17 13 14 10 11 14 15 16 18 20 21 22 13 17 19 19 19 19 18 16 13 11 12 12 12 14 16 19 18 17 16 17 20 23 23 23 23 23 21 19
Wind_Direction
62 69 62 57 45 42 53 61 57 53 61 59 82 81 103 110 107 99 94 95 93 96 99 98 103 110 108 105 105 105 102 102 108 102 101 110 116 114 114 106 102 99 93 90 94 91 77 69 75
75 78 62 59 51 44 42 47 51 55 64 61 69 81 94 112 115 110 107 99 96 101 103 102 102 109 113 111 107 104 102 105 106 114 119 121 133 135 118 101 94 92 103 105 98 90 84 85 82
69 61 48 56 57 51 45 45 42 51 57 61 80 95 109 121 107 113 117 105 96 101 103 109 106 110 109 107 107 108 111 116 115 119 118 125 128 128 116 105 101 99 98 106 101 79 76 89 93
56 56 52 57 56 52 48 38 36 36 52 57 58 67 116 131 126 111 118 109 92 97 109 113 118 119 113 109 113 116 114 112 111 110 114 113 110 106 105 110 109 103 104 106 102 92 89 97 109
46 60 50 60 54 58 50 43 41 38 41 46 47 43 47 144 148 139 131 128 104 86 112 121 128 130 127 115 113 116 117 115 113 105 104 100 96 98 102 103 109 107 99 90 90 89 87 96 102
57 64 56 59 60 63 56 48 43 42 40 39 36 36 32 29 159 163 159 149 129 115 107 129 134 138 130 122 117 117 115 112 113 105 99 100 102 94 103 107 109 102 97 90 86 74 68 79 101
67 67 65 68 65 58 46 33 37 40 44 44 40 38 37 25 150 170 175 175 150 153 147 144 142 145 140 130 126 119 114 103 100 98 104 96 103 107 113 116 107 96 86 76 60 51 51 42 37
75 76 70 68 66 60 43 35 50 43 37 43 46 44 42 32 10 189 209 188 159 172 179 166 151 149 156 151 139 126 105 91 84 83 76 77 93 100 123 116 132 116 76 87 54 20 11 17 22
64 74 77 72 66 63 53 46 45 41 30 40 43 48 44 45 27 359 262 233 188 187 193 183 168 172 176 174 167 141 110 98 70 69 48 24 37 158 176 184 50 61 49 48 31 35 5 353 351
51 47 80 85 77 61 55 45 36 36 26 36 38 46 46 39 31 8 340 264 226 204 205 194 190 194 192 188 187 156 95 75 65 60 43 50 38 176 178 145 119 75 48 36 359 9 359 341 329
45 87 104 105 84 66 59 48 35 30 34 29 32 36 41 47 34 17 290 241 225 220 221 208 199 203 203 203 206 191 182 57 46 61 44 40 31 145 187 150 161 123 27 354 352 356 357 349 328
66 86 91 104 84 74 64 52 39 32 25 32 28 31 37 37 34 23 5 275 249 235 229 225 223 216 212 207 205 207 202 159 123 116 46 37 44 112 169 181 197 213 11 5 353 349 352 340 322
43 59 110 97 85 88 75 62 46 32 25 25 29 34 41 37 32 24 22 356 259 245 242 235 240 238 226 221 222 198 196 176 202 172 110 340 46 62 344 278 211 274 293 302 293 308 312 327 341
342 27 19 121 101 95 86 77 59 36 26 19 14 21 32 28 26 24 16 11 131 212 218 221 234 235 237 226 224 198 173 185 197 212 201 228 266 282 267 291 279 256 261 256 252 269 281 300 303
276 323 6 161 132 113 103 87 63 46 29 17 9 5 20 26 22 19 15 38 353 280 256 208 212 219 222 228 234 217 194 208 215 229 245 297 271 290 287 285 283 281 282 310 283 255 273 284 291
258 287 48 157 136 139 123 94 73 58 40 22 15 8 9 22 23 24 17 6 13 266 232 204 192 210 215 209 224 242 227 219 220 262 282 278 286 279 285 313 291 288 294 307 304 302 288 282 291
256 274 92 161 144 135 138 118 91 75 61 31 11 12 5 13 25 25 21 17 18 355 175 197 186 182 195 215 219 227 235 235 265 271 289 314 288 287 292 292 293 285 296 301 304 307 311 326 304
247 254 218 182 185 161 143 153 114 93 60 36 19 12 16 1 23 32 26 19 29 59 112 171 207 207 202 211 207 223 267 297 298 314 324 311 290 301 315 313 302 296 294 295 288 291 306 298 316
242 236 257 221 197 221 242 246 182 124 80 37 18 1 8 357 21 36 41 35 38 42 64 87 92 109 119 137 160 106 57 59 33 357 334 9 10 335 317 316 320 306 295 285 272 286 295 323 323
238 229 239 255 246 202 223 216 170 170 111 40 1 342 353 3 359 34 43 50 45 49 59 71 80 101 103 108 95 80 60 21 16 5 16 29 19 15 3 358 353 342 329 318 269 273 299 317 325
236 233 224 240 256 272 217 212 191 195 218 9 337 321 340 341 355 346 30 27 39 49 56 63 67 82 87 88 82 65 39 7 358 353 7 13 18 13 14 12 17 12 16 8 353 304 309 314 331
236 235 221 230 242 257 231 226 266 241 240 245 319 333 321 321 15 332 329 347 331 333 5 59 64 55 73 94 100 110 107 328 319 336 355 356 349 343 357 4 1 9 14 7 352 343 348 336 342
232 233 229 231 239 245 261 273 261 272 253 268 300 318 299 298 345 2 359 348 297 260 271 301 57 49 49 52 277 228 245 257 278 289 315 332 344 328 319 323 329 330 327 345 342 345 355 359 354
237 233 237 233 238 242 245 278 238 263 259 253 299 285 300 284 285 306 301 303 301 290 254 253 277 293 310 286 246 249 259 275 288 303 314 310 305 307 309 296 306 318 318 317 325 338 338 338 334
243 233 229 236 240 244 247 259 258 266 267 277 280 282 279 277 288 312 311 302 290 280 281 260 254 263 272 263 247 235 240 274 313 316 318 306 292 287 288 297 296 307 315 318 314 312 312 311 308
240 231 223 231 240 249 246 252 268 277 275 284 278 259 258 260 303 319 320 321 299 284 281 269 256 249 261 268 250 249 262 284 326 322 324 316 306 284 270 270 270 268 274 288 295 298 299 300 299
236 231 225 232 245 249 249 259 276 262 256 277 280 233 232 257 287 307 308 314 313 291 283 266 260 253 240 249 247 244 253 276 289 303 308 309 313 298 267 248 253 260 268 279 285 288 289 293 291
225 228 224 233 243 250 257 262 267 250 257 256 293 224 228 226 257 300 303 315 318 291 274 263 256 256 243 240 243 253 250 265 285 296 299 306 312 310 270 242 238 247 259 265 270 273 269 277 290
230 227 232 235 242 252 261 262 241 233 230 235 257 215 200 228 254 276 288 303 313 306 263 265 251 255 264 245 247 247 259 257 273 282 295 306 304 301 290 263 252 245 247 257 265 270 268 275 287
224 227 231 236 246 251 261 262 258 229 210 208 201 220 219 240 250 265 279 283 291 284 254 251 249 247 248 248 252 245 243 258 261 273 289 292 290 285 281 280 274 271 272 272 273 273 273 271 273
Height
5907 5907 5905 5903 5904 5899 5899 5900 5898 5896 5896 5895 5895 5896 5897 5897 5897 5898 5896 5895 5895 5895 5896 5896 5897 5897 5896 5895 5895 5895 5895 5896 5898 5898 5899 5900 5902 5902 5902 5901 5901 5901 5902 5903 5904 5903 5903 5904 5903
5910 5909 5907 5905 5904 5902 5901 5899 5899 5899 5898 5898 5897 5897 5897 5898 5898 5897 5897 5897 5896 5897 5897 5898 5898 5899 5899 5898 5898 5897 5898 5899 5900 5901 5901 5902 5903 5903 5903 5902 5902 5903 5904 5904 5905 5904 5904 5904 5904
5912 5911 5910 5908 5906 5905 5903 5900 5899 5900 5899 5899 5899 5898 5899 5899 5898 5898 5898 5899 5898 5898 5899 5900 5900 5900 5900 5899 5899 5900 5901 5902 5902 5902 5902 5902 5903 5903 5903 5903 5903 5904 5905 5905 5905 5905 5904 5904 5904
5914 5915 5913 5910 5908 5907 5906 5904 5902 5900 5900 5899 5899 5898 5899 5899 5898 5899 5900 5900 5900 5900 5900 5901 5901 5901 5901 5901 5902 5902 5903 5903 5903 5903 5904 5904 5904 5904 5903 5903 5904 5906 5906 5906 5905 5904 5904 5905 5904
5916 5915 5914 5912 5911 5910 5909 5907 5904 5901 5901 5900 5899 5899 5899 5898 5899 5899 5900 5901 5901 5901 5901 5902 5903 5903 5904 5903 5903 5904 5903 5903 5904 5905 5905 5905 5905 5905 5905 5906 5906 5906 5907 5907 5906 5905 5905 5905 5905
5918 5917 5916 5915 5913 5912 5910 5909 5905 5902 5901 5901 5900 5899 5899 5899 5900 5900 5899 5900 5901 5902 5902 5902 5903 5904 5905 5904 5904 5905 5905 5905 5906 5906 5906 5906 5906 5907 5907 5908 5908 5908 5907 5907 5907 5907 5907 5907 5906
5920 5918 5918 5918 5915 5913 5912 5909 5906 5903 5902 5902 5901 5899 5899 5899 5899 5899 5900 5900 5900 5901 5902 5903 5903 5904 5904 5904 5905 5905 5905 5906 5906 5906 5906 5906 5906 5907 5908 5909 5909 5909 5908 5908 5908 5908 5908 5908 5907
5922 5921 5919 5919 5917 5916 5914 5911 5908 5905 5902 5901 5900 5900 5899 5900 5900 5900 5900 5900 5900 5901 5902 5902 5904 5905 5905 5905 5905 5905 5906 5906 5906 5907 5907 5906 5906 5907 5908 5908 5909 5909 5909 5908 5908 5908 5907 5907 5907
5924 5923 5921 5920 5919 5918 5915 5913 5910 5907 5905 5903 5901 5900 5900 5900 5900 5900 5900 5900 5900 5901 5901 5902 5903 5904 5905 5905 5906 5906 5906 5906 5906 5907 5907 5906 5906 5906 5908 5908 5908 5908 5909 5908 5908 5907 5906 5905 5905
5925 5925 5923 5921 5920 5919 5917 5914 5912 5910 5907 5906 5904 5902 5901 5900 5900 5900 5900 5901 5900 5900 5901 5901 5902 5903 5904 5905 5906 5907 5906 5907 5907 5907 5907 5906 5906 5906 5907 5907 5908 5907 5908 5909 5908 5907 5905 5904 5903
5925 5926 5925 5923 5921 5920 5918 5916 5914 5911 5909 5908 5907 5905 5903 5901 5901 5901 5900 5900 5899 5899 5901 5901 5901 5902 5903 5904 5905 5906 5906 5907 5907 5907 5907 5907 5906 5906 5905 5906 5907 5907 5907 5907 5907 5906 5905 5903 5902
5926 5927 5927 5924 5922 5921 5920 5918 5916 5914 5911 5909 5908 5907 5905 5903 5901 5901 5899 5898 5898 5899 5900 5901 5902 5902 5903 5904 5904 5905 5905 5906 5907 5907 5906 5906 5905 5905 5906 5906 5906 5906 5906 5906 5906 5905 5904 5903 5901
5925 5927 5928 5926 5924 5921 5921 5920 5918 5915 5911 5910 5909 5908 5906 5903 5901 5900 5898 5897 5898 5900 5900 5900 5901 5903 5903 5904 5904 5904 5905 5906 5906 5906 5906 5906 5906 5906 5905 5904 5905 5905 5904 5904 5904 5903 5902 5901 5900
5923 5926 5927 5926 5924 5923 5922 5920 5918 5916 5913 5910 5909 5908 5906 5904 5900 5898 5897 5897 5897 5898 5898 5899 5900 5901 5903 5904 5904 5904 5905 5905 5905 5906 5905 5905 5905 5904 5904 5904 5903 5902 5901 5901 5901 5901 5900 5900 5898
5922 5925 5926 5926 5925 5924 5923 5922 5920 5918 5916 5912 5910 5908 5906 5903 5900 5897 5895 5895 5895 5896 5896 5897 5898 5900 5901 5903 5904 5904 5903 5904 5904 5904 5904 5904 5904 5903 5903 5902 5902 5901 5899 5899 5895 5898 5898 5897 5897
5920 5923 5925 5926 5925 5925 5924 5923 5921 5920 5919 5916 5913 5910 5907 5905 5902 5899 5897 5896 5895 5894 5894 5895 5896 5898 5900 5901 5903 5903 5903 5903 5904 5904 5903 5903 5902 5902 5901 5900 5900 5899 5898 5898 5897 5897 5896 5896 5895
5919 5921 5924 5926 5925 5925 5924 5923 5921 5920 5920 5918 5915 5912 5909 5907 5905 5902 5899 5898 5896 5894 5892 5894 5896 5896 5898 5900 5901 5901 5901 5901 5901 5901 5900 5900 5900 5899 5899 5898 5898 5897 5896 5895 5894 5895 5895 5894 5893
5918 5920 5922 5924 5925 5924 5924 5924 5922 5920 5921 5919 5917 5914 5912 5910 5907 5904 5902 5900 5898 5897 5896 5897 5897 5897 5897 5899 5900 5900 5900 5899 5899 5898 5897 5898 5898 5898 5897 5896 5895 5894 5893 5892 5893 5892 5893 5892 5892
5916 5918 5919 5921 5922 5923 5923 5924 5921 5920 5920 5920 5918 5915 5914 5912 5910 5908 5906 5903 5901 5899 5898 5897 5897 5896 5896 5897 5898 5899 5899 5899 5897 5896 5896 5896 5897 5896 5895 5894 5893 5891 5890 5889 5890 5890 5890 5891 5890
5913 5916 5917 5917 5918 5921 5921 5923 5921 5920 5920 5919 5918 5916 5914 5914 5912 5910 5908 5906 5905 5902 5901 5899 5898 5897 5896 5897 5897 5898 5898 5899 5899 5899 5897 5896 5895 5895 5893 5893 5891 5889 5887 5886 5887 5887 5887 5889 5888
5910 5913 5914 5915 5915 5918 5920 5923 5921 5921 5920 5919 5917 5915 5913 5912 5913 5911 5910 5908 5908 5906 5904 5902 5901 5900 5898 5899 5899 5899 5898 5899 5899 5899 5898 5896 5895 5894 5893 5891 5890 5888 5886 5886 5885 5886 5885 5886 5886
5907 5908 5910 5911 5913 5915 5918 5921 5921 5919 5918 5917 5916 5915 5913 5911 5911 5910 5909 5908 5907 5907 5906 5904 5903 5902 5901 5900 5900 5900 5899 5900 5900 5898 5896 5894 5893 5892 5891 5891 5889 5888 5887 5886 5885 5885 5884 5884 5884
5903 5902 5906 5908 5909 5912 5913 5916 5918 5917 5917 5917 5914 5913 5912 5911 5910 5910 5910 5908 5906 5905 5905 5905 5904 5903 5902 5901 5900 5899 5898 5898 5897 5895 5894 5892 5892 5891 5890 5890 5889 5889 5888 5886 5885 5884 5884 5884 5883
5896 5900 5902 5904 5906 5908 5910 5911 5915 5914 5915 5915 5913 5912 5910 5908 5910 5910 5909 5908 5905 5904 5903 5903 5903 5902 5900 5900 5899 5897 5896 5895 5894 5893 5891 5891 5890 5889 5889 5888 5888 5887 5887 5886 5886 5884 5883 5882 5882
5892 5896 5897 5900 5901 5904 5907 5907 5911 5912 5912 5911 5911 5910 5908 5906 5908 5908 5907 5905 5904 5902 5901 5900 5900 5899 5898 5897 5896 5895 5894 5892 5891 5889 5888 5888 5887 5886 5885 5885 5885 5885 5885 5885 5884 5882 5881 5880 5879
5887 5891 5893 5894 5897 5901 5902 5902 5906 5909 5908 5908 5907 5907 5906 5905 5906 5905 5904 5903 5901 5900 5899 5898 5896 5894 5894 5895 5894 5892 5891 5889 5887 5887 5886 5886 5884 5882 5881 5881 5882 5882 5881 5881 5881 5880 5879 5877 5876
5882 5885 5889 5890 5892 5895 5897 5900 5903 5904 5904 5904 5903 5903 5903 5903 5903 5902 5902 5901 5899 5898 5897 5896 5895 5893 5891 5893 5891 5890 5889 5887 5886 5884 5883 5883 5880 5877 5876 5877 5878 5878 5878 5878 5878 5877 5876 5875 5873
5877 5882 5885 5886 5888 5890 5892 5895 5900 5900 5901 5901 5899 5899 5899 5900 5899 5898 5898 5897 5896 5892 5894 5894 5893 5891 5889 5888 5888 5888 5887 5886 5885 5884 5883 5881 5879 5876 5873 5872 5872 5873 5874 5874 5873 5872 5871 5870 5868
5873 5876 5879 5883 5885 5887 5889 5891 5895 5896 5898 5897 5896 5895 5895 5896 5895 5894 5894 5892 5890 5889 5890 5891 5890 5889 5889 5886 5885 5885 5884 5884 5882 5881 5880 5878 5876 5875 5873 5871 5871 5868 5867 5867 5867 5866 5866 5864 5862
5868 5871 5875 5878 5881 5882 5884 5886 5890 5891 5894 5892 5893 5894 5894 5893 5892 5891 5891 5890 5888 5886 5885 5884 5883 5882 5880 5881 5881 5881 5880 5880 5879 5878 5876 5874 5873 5872 5870 5869 5867 5867 5865 5863 5862 5860 5859 5857 5855